Skip Page Navigation
NASA JPL Caltech
NASA Logo - Jet Propulsion Laboratory + View the NASA Portal
+ Center for Near-Earth Object Studies
JPL Home Earth Solar System Stars & Galaxies Technology
JPL Solar System Dynamics
BODIES ORBITS EPHEMERIDES TOOLS PHYSICAL DATA DISCOVERY FAQ SITE MAP
JPL Small-Body Database Browser
Search: [ help ]  
150501 (2000 QU125)
Classification: Main-belt Asteroid          SPK-ID: 2150501
Ephemeris | Orbit Diagram | Orbital Elements | Mission Design | Physical Parameters | Discovery Circumstances ]

[ show orbit diagram ]
Orbital Elements at Epoch 2459200.5 (2020-Dec-17.0) TDB
Reference: JPL 21 (heliocentric ecliptic J2000)
 Element Value Uncertainty (1-sigma)   Units 
e .1249231423775499 5.87e-08  
a 2.689349959603529 1.7896e-08 au
q 2.353387911696919 1.5285e-07 au
i 15.01614801116012 5.3351e-06 deg
node 330.9588898579296 1.7663e-05 deg
peri 24.49930154524651 2.5028e-05 deg
M 209.3107315686769 1.9337e-05 deg
tp 2459874.793898985140
(2022-Oct-22.29389899)
8.8801e-05 TDB
period 1610.903060062848
4.41
1.6079e-05
4.402e-08
d
yr
n .22347713461166 2.2307e-09 deg/d
Q 3.025312007510139 2.0132e-08 au
  Orbit Determination Parameters
   # obs. used (total)      590  
   data-arc span      10482 days (28.70 yr)  
   first obs. used      1991-08-06  
   last obs. used      2020-04-17  
   planetary ephem.      DE441  
   SB-pert. ephem.      SB441-N16  
   condition code      0  
   norm. resid. RMS      .56492  
   source      ORB  
   producer      Otto Matic  
   solution date      2021-Apr-13 19:18:49  

Additional Information
 Earth MOID = 1.35222 au 
 Jupiter MOID = 2.40341 au 
 T_jup = 3.313 
[ show covariance matrix ]

Ephemeris | Orbit Diagram | Orbital Elements | Mission Design | Physical Parameters | Discovery Circumstances ]

Physical Parameter Table
Parameter Symbol Value Units Sigma Reference Notes
absolute magnitude H 15.22   n/a E2021B55  

150501 (2000 QU125)          Discovered 2000-Aug-31 by LINEAR at Socorro
Reference: 20070303/Numbers.arcLast Updated: 2007-03-07

Alternate Designations
 2000 QU125 = 1991 PB8 
Ephemeris | Orbit Diagram | Orbital Elements | Mission Design | Physical Parameters | Discovery Circumstances ]
ABOUT SSD CREDITS/AWARDS PRIVACY/COPYRIGHT GLOSSARY LINKS
FirstGov 2021-Apr-15 08:35 UT
(server date/time)  
NASA Home Page
Site Manager:   Ryan S. Park
Webmaster  Alan B. Chamberlin